Pardubice, Czech Republic

4:08 PM CEST on August 30, 2016 (GMT +0200)
Pardubice

Weather History for LKPD - October, 2011

Change the Weather History Date:

Saturday, October 22, 2011

  Actual Average Record
Temperature  
Mean Temperature 40 °F -  
Max Temperature 48 °F - - ()
Min Temperature 32 °F - - ()
Degree Days  
Heating Degree Days 25    
Moisture  
Dew Point 35 °F    
Average Humidity 92    
Maximum Humidity 100    
Minimum Humidity 66    
Precipitation  
Precipitation 0.00 in - - ()
Sea Level Pressure  
Sea Level Pressure 30.36 in    
Wind  
Wind Speed 2 mph ()    
Max Wind Speed 4 mph    
Max Gust Speed -    
Visibility 2.0 miles    
Events Fog    
T = Trace of Precipitation, MM = Missing Value Source: Averaged Metar Reports

Daily Weather History Graph

Daily Weather History Graph

Search for Another Location

Airport or City:

Trip Planner

Search our weather history database for the weather conditions in past years. The results will help you decide how hot, cold, wet, or windy it might be!

Date:

Astronomy

Oct. 22, 2011 Rise Set
Actual Time 7:29 AM CEST 5:52 PM CEST
Civil Twilight 6:56 AM CEST 6:25 PM CEST
Nautical Twilight 6:18 AM CEST 7:03 PM CEST
Astronomical Twilight 5:41 AM CEST 7:40 PM CEST
Moon 1:36 AM CEST (10/22) 3:26 PM CEST (10/22)
Length of Visible Light 11h 29m
Length of Day
10h 23m
Waning Crescent, 26% of the Moon is Illuminated
Oct 22
Waning Crescent
Oct 26
New
Nov 2
First Quarter
Nov 10
Full
Nov 18
Last Quarter

Hourly Weather History & Observations

Time (CEST) Temp. Windchill Dew Point Humidity Pressure Visibility Wind Dir Wind Speed Gust Speed Precip Events Conditions
12:00 AM 37.4 °F 34.9 °F 35.6 °F 93% 30.42 in 0.9 mi East 3.5 mph - N/A   Overcast
1:00 AM 35.6 °F 32.8 °F 33.8 °F 93% 30.42 in 0.9 mi ESE 3.5 mph - N/A   Overcast
2:00 AM 35.6 °F 32.8 °F 33.8 °F 93% 30.42 in 0.9 mi ENE 3.5 mph - N/A   Overcast
3:00 AM 35.6 °F 32.8 °F 35.6 °F 100% 30.42 in 0.6 mi NE 3.5 mph - N/A   Overcast
3:09 AM 35.6 °F - 33.8 °F 93% 30.42 in 0.2 mi Variable 2.3 mph - N/A Fog Fog
4:00 AM 35.6 °F - 33.8 °F 93% 30.39 in 0.2 mi Variable 2.3 mph - N/A Fog Fog
5:00 AM 37.4 °F - 37.4 °F 100% 30.39 in 0.2 mi Calm Calm - N/A Fog Fog
6:00 AM 33.8 °F - 33.8 °F 100% 30.39 in 0.2 mi Variable 2.3 mph - N/A Fog Fog
7:00 AM 33.8 °F 30.8 °F 33.8 °F 100% 30.39 in 0.1 mi SE 3.5 mph - N/A Fog Fog
8:00 AM 33.8 °F - 33.8 °F 100% 30.39 in 0.1 mi South 2.3 mph - N/A Fog Fog
9:00 AM 33.8 °F 30.8 °F 32.0 °F 93% 30.42 in 0.2 mi ESE 3.5 mph - N/A Fog Fog
10:00 AM 33.8 °F - 33.8 °F 100% 30.39 in 0.1 mi Variable 2.3 mph - N/A Fog Fog
11:00 AM 35.6 °F - 35.6 °F 100% 30.39 in 0.2 mi Variable 2.3 mph - N/A Fog Fog
11:31 AM 35.6 °F - 35.6 °F 100% 30.39 in 1.2 mi Variable 2.3 mph - N/A   Overcast
12:00 PM 35.6 °F 32.8 °F 35.6 °F 100% 30.39 in 1.2 mi East 3.5 mph - N/A   Overcast
12:51 PM 41.0 °F - 39.2 °F 93% 30.36 in 2.2 mi Variable 2.3 mph - N/A   Scattered Clouds
1:00 PM 39.2 °F 37.0 °F 39.2 °F 100% 30.36 in 3.1 mi East 3.5 mph - N/A   Scattered Clouds
2:00 PM 42.8 °F - 37.4 °F 81% 30.33 in 4.3 mi Variable 2.3 mph - N/A   Unknown
3:00 PM 48.2 °F - 37.4 °F 66% 30.33 in 4.3 mi Calm Calm - N/A   Unknown
4:00 PM 48.2 °F - 37.4 °F 66% 30.30 in 4.3 mi Variable 2.3 mph - N/A   Unknown
5:00 PM 46.4 °F 45.2 °F 39.2 °F 76% 30.30 in 5.0 mi WSW 3.5 mph - N/A   Unknown
6:00 PM 42.8 °F - 37.4 °F 81% 30.30 in 5.0 mi Calm Calm - N/A   Unknown
7:00 PM 39.2 °F - 35.6 °F 87% 30.30 in 4.3 mi SSW 2.3 mph - N/A   Unknown
8:00 PM 37.4 °F - 35.6 °F 93% 30.30 in 4.3 mi Calm Calm - N/A   Unknown
9:00 PM 35.6 °F - 33.8 °F 93% 30.30 in 3.1 mi Variable 1.2 mph - N/A   Mist
10:00 PM 32.0 °F - 32.0 °F 100% 30.30 in 3.1 mi Calm Calm - N/A   Mist
11:00 PM 32.0 °F - 30.2 °F 93% 30.30 in 3.1 mi Calm Calm - N/A   Mist
11:19 PM 33.8 °F - 32.0 °F 93% 30.30 in 1.6 mi ESE 1.2 mph - N/A Fog Fog